Mount Holly, NJ

6:09 AM EDT on April 25, 2017 (GMT -0400)
South Jersey Regional

Weather History for KVAY - November, 2013

Change the Weather History Date:

Wednesday, November 20, 2013

  Actual Average (KPNE) Record (KPNE)
Temperature  
Mean Temperature 35 °F -  
Max Temperature 46 °F 51 °F 68 °F (1999)
Min Temperature 24 °F 34 °F 21 °F (2000)
Degree Days  
Heating Degree Days 30    
Moisture  
Dew Point 17 °F    
Average Humidity 54    
Maximum Humidity 84    
Minimum Humidity 25    
Precipitation  
Precipitation 0.00 in - - ()
Sea Level Pressure  
Sea Level Pressure 30.53 in    
Wind  
Wind Speed 3 mph (NNE)    
Max Wind Speed 8 mph    
Max Gust Speed -    
Visibility 10 miles    
Events      
Averages and records for this station are not official NWS values.
T = Trace of Precipitation, MM = Missing Value Source: NWS Daily Summary

Daily Weather History Graph

Daily Weather History Graph

Search for Another Location

Airport or City:

Trip Planner

Search our weather history database for the weather conditions in past years. The results will help you decide how hot, cold, wet, or windy it might be!

Date:

Astronomy

Nov. 20, 2013 Rise Set
Actual Time 6:50 AM EST 4:39 PM EST
Civil Twilight 6:20 AM EST 5:08 PM EST
Nautical Twilight 5:47 AM EST 5:41 PM EST
Astronomical Twilight 5:15 AM EST 6:14 PM EST
Moon 7:20 PM EST (11/20) 9:13 AM EST (11/20)
Length of Visible Light 10h 47m
Length of Day
9h 49m
Waning Gibbous, 91% of the Moon is Illuminated
Nov 20
Waning Gibbous
Nov 25
Last Quarter
Dec 2
New
Dec 9
First Quarter
Dec 17
Full

Hourly Weather History & Observations

Time (EST) Temp. Windchill Dew Point Humidity Pressure Visibility Wind Dir Wind Speed Gust Speed Precip Events Conditions
12:54 AM 30.0 °F 24.1 °F 21.0 °F 69% 30.38 in 10.0 mi NNW 5.8 mph - N/A   Clear
1:54 AM 30.9 °F 27.5 °F 21.0 °F 67% 30.39 in 10.0 mi NNW 3.5 mph - N/A   Clear
2:54 AM 30.0 °F 25.2 °F 19.9 °F 66% 30.41 in 10.0 mi North 4.6 mph - N/A   Clear
3:54 AM 28.9 °F - 19.9 °F 69% 30.43 in 10.0 mi Calm Calm - N/A   Clear
4:54 AM 27.0 °F - 19.9 °F 75% 30.45 in 10.0 mi Calm Calm - N/A   Clear
5:54 AM 25.0 °F - 19.0 °F 78% 30.48 in 10.0 mi Calm Calm - N/A   Clear
6:54 AM 24.1 °F - 19.9 °F 84% 30.51 in 10.0 mi Calm Calm - N/A   Clear
7:54 AM 30.0 °F 25.2 °F 23.0 °F 75% 30.52 in 10.0 mi NNE 4.6 mph - N/A   Clear
8:54 AM 36.0 °F 30.3 °F 21.0 °F 55% 30.55 in 10.0 mi NNE 6.9 mph - N/A   Clear
9:54 AM 39.0 °F 34.0 °F 19.9 °F 46% 30.56 in 10.0 mi NNE 6.9 mph - N/A   Clear
10:54 AM 41.0 °F 36.4 °F 18.0 °F 40% 30.57 in 10.0 mi ENE 6.9 mph - N/A   Clear
11:54 AM 43.0 °F 40.3 °F 17.1 °F 35% 30.56 in 10.0 mi NNE 4.6 mph - N/A   Clear
12:54 PM 44.1 °F 42.5 °F 15.1 °F 31% 30.56 in 10.0 mi Variable 3.5 mph - N/A   Clear
1:54 PM 45.0 °F 41.8 °F 12.9 °F 27% 30.55 in 10.0 mi ENE 5.8 mph - N/A   Clear
2:54 PM 46.0 °F 41.9 °F 12.0 °F 25% 30.54 in 10.0 mi NNE 8.1 mph - N/A   Clear
3:54 PM 44.1 °F 41.5 °F 10.0 °F 25% 30.54 in 10.0 mi NE 4.6 mph - N/A   Clear
4:54 PM 39.9 °F 36.7 °F 10.0 °F 29% 30.54 in 10.0 mi ENE 4.6 mph - N/A   Clear
5:54 PM 33.1 °F - 12.9 °F 43% 30.56 in 10.0 mi Calm Calm - N/A   Clear
6:54 PM 30.9 °F - 12.9 °F 47% 30.57 in 10.0 mi Calm Calm - N/A   Clear
7:54 PM 28.0 °F - 16.0 °F 61% 30.58 in 10.0 mi Calm Calm - N/A   Clear
8:54 PM 27.0 °F - 16.0 °F 63% 30.59 in 10.0 mi Calm Calm - N/A   Clear
9:54 PM 26.1 °F - 16.0 °F 66% 30.59 in 10.0 mi Calm Calm - N/A   Clear
10:54 PM 27.0 °F - 16.0 °F 63% 30.60 in 10.0 mi Calm Calm - N/A   Clear
11:54 PM 28.0 °F - 18.0 °F 66% 30.60 in 10.0 mi Calm Calm - N/A   Scattered Clouds